Gloucester, Virginia, United States (23061)
Lat: 37.41N, Lon: 76.53W
Wx Zone: VAZ084
Local Info
Past Weather Observations for Today

NOTE: This archive is for the closest National Weather Service station to Gloucester. Information may differ from the station used for current weather conditions.

Click here for Long-term Archive

Time Weather Temperature Dewpoint Humidity Pressure Winds Precip Visibility
18:15
Clear
70°F / 21°C 59°F / 15°C 69% 29.68 in
(1005 mb)
S 5.8 mph
(S 9 kph)
- 10SM
17:55
Clear
70°F / 21°C 59°F / 15°C 69% 29.68 in
(1005 mb)
S 4.6 mph
(S 7 kph)
- 10SM
17:35
Clear
72°F / 22°C 59°F / 15°C 65% 29.68 in
(1005 mb)
S 8.1 mph
(S 13 kph)
- 10SM
17:15
Clear
72°F / 22°C 59°F / 15°C 65% 29.68 in
(1005 mb)
S 10.4 mph
(S 17 kph)
- 10SM
16:55
Partly Cloudy
73°F / 23°C 59°F / 15°C 61% 29.68 in
(1005 mb)
S 8.1 mph
(S 13 kph)
- 10SM
16:35
Mostly Cloudy
73°F / 23°C 57°F / 14°C 57% 29.68 in
(1005 mb)
S 10.4 mph
(S 17 kph)
- 10SM
16:15
Overcast
73°F / 23°C 59°F / 15°C 61% 29.71 in
(1006 mb)
S 10.4 mph
(S 17 kph)
- 10SM
15:55
Overcast
73°F / 23°C 59°F / 15°C 61% 29.71 in
(1006 mb)
S 10.4 mph
(S 17 kph)
- 10SM
15:35
Overcast
73°F / 23°C 59°F / 15°C 61% 29.71 in
(1006 mb)
S 9.2 mph
(S 15 kph)
- 10SM
15:15
Partly Cloudy
73°F / 23°C 59°F / 15°C 61% 29.74 in
(1007 mb)
SSE 9.2 mph
(SSE 15 kph)
- 10SM
14:55
Partly Cloudy
73°F / 23°C 59°F / 15°C 61% 29.74 in
(1007 mb)
S 11.5 mph
(S 19 kph)
- 10SM
14:35
Partly Cloudy
73°F / 23°C 61°F / 16°C 65% 29.74 in
(1007 mb)
S 9.2 mph
(S 15 kph)
- 10SM
14:15
Partly Cloudy
72°F / 22°C 61°F / 16°C 69% 29.74 in
(1007 mb)
SSE 11.5 mph
(SSE 19 kph)
- 10SM
13:55
Mostly Cloudy
70°F / 21°C 63°F / 17°C 78% 29.77 in
(1008 mb)
SSE 11.5 mph
(SSE 19 kph)
- 10SM
13:35
Overcast
68°F / 20°C 63°F / 17°C 83% 29.77 in
(1008 mb)
SE 10.4 mph
(SE 17 kph)
- 10SM
13:15
Overcast
68°F / 20°C 63°F / 17°C 83% 29.8 in
(1009 mb)
SSE 9.2 mph
(SSE 15 kph)
- 10SM
12:55
Overcast
68°F / 20°C 63°F / 17°C 83% 29.83 in
(1010 mb)
S 5.8 mph
(S 9 kph)
- 10SM
12:35
Overcast
68°F / 20°C 63°F / 17°C 83% 29.83 in
(1010 mb)
SSE 8.1 mph
(SSE 13 kph)
- 7SM
12:15
Overcast
68°F / 20°C 63°F / 17°C 83% 29.89 in
(1012 mb)
SSE 13.8 mph
(SSE 22 kph)
- 7SM
11:55
Overcast
68°F / 20°C 64°F / 18°C 88% 29.89 in
(1012 mb)
S 9.2 mph
(S 15 kph)
0.02 in
(0.51 mm)
5SM
11:35
Overcast
66°F / 19°C 64°F / 18°C 94% 29.89 in
(1012 mb)
S 9.2 mph
(S 15 kph)
0.01 in
(0.25 mm)
10SM
11:15
Overcast
66°F / 19°C 64°F / 18°C 94% 29.89 in
(1012 mb)
SSE 10.4 mph
(SSE 17 kph)
0.01 in
(0.25 mm)
7SM
10:55
Overcast
66°F / 19°C 64°F / 18°C 94% 29.92 in
(1013 mb)
SSE 6.9 mph
(SSE 11 kph)
0.18 in
(4.57 mm)
1 1/2SM
10:35
Overcast
66°F / 19°C 63°F / 17°C 88% 29.92 in
(1013 mb)
S 16.1 mph
(S 26 kph)
0.14 in
(3.56 mm)
1 1/2SM
10:15
Overcast
68°F / 20°C 63°F / 17°C 83% 29.92 in
(1013 mb)
SSE 12.7 mph
(SSE 20 kph)
0.04 in
(1.02 mm)
1 1/4SM
09:55
Mostly Cloudy
68°F / 20°C 64°F / 18°C 88% 29.95 in
(1014 mb)
SSE 9.2 mph
(SSE 15 kph)
0.06 in
(1.52 mm)
7SM
09:35
Overcast
68°F / 20°C 64°F / 18°C 88% 29.95 in
(1014 mb)
S 9.2 mph
(S 15 kph)
0.06 in
(1.52 mm)
5SM
09:15
Mostly Cloudy
66°F / 19°C 61°F / 16°C 83% 29.98 in
(1015 mb)
S 10.4 mph
(S 17 kph)
- 7SM
08:55
Mostly Cloudy
66°F / 19°C 63°F / 17°C 88% 29.95 in
(1014 mb)
SSE 9.2 mph
(SSE 15 kph)
- 10SM
08:35
Mostly Cloudy
64°F / 18°C 63°F / 17°C 94% 29.98 in
(1015 mb)
SSE 8.1 mph
(SSE 13 kph)
- 10SM
08:15
Partly Cloudy
64°F / 18°C 61°F / 16°C 88% 29.98 in
(1015 mb)
SSE 6.9 mph
(SSE 11 kph)
- 10SM
07:55
Mostly Cloudy
64°F / 18°C 61°F / 16°C 88% 29.98 in
(1015 mb)
SE 9.2 mph
(SE 15 kph)
0.01 in
(0.25 mm)
10SM
07:35
Overcast
63°F / 17°C 59°F / 15°C 88% 30.01 in
(1016 mb)
S 5.8 mph
(S 9 kph)
- 10SM
07:15
Overcast
61°F / 16°C 59°F / 15°C 94% 30.01 in
(1016 mb)
S 6.9 mph
(S 11 kph)
- 5SM
06:55
Mostly Cloudy
61°F / 16°C 59°F / 15°C 94% 30.01 in
(1016 mb)
Calm - 7SM
06:35
Mostly Cloudy
61°F / 16°C 59°F / 15°C 94% 30.01 in
(1016 mb)
SE 5.8 mph
(SE 9 kph)
- 7SM
06:15
Partly Cloudy
59°F / 15°C 57°F / 14°C 94% 30.01 in
(1016 mb)
SE 4.6 mph
(SE 7 kph)
- 4SM
05:55
Mostly Cloudy
55°F / 13°C 54°F / 12°C 94% 30.04 in
(1017 mb)
SSE 3.5 mph
(SSE 6 kph)
- 1/4SM
05:35
Fair
57°F / 14°C 55°F / 13°C 94% 30.04 in
(1017 mb)
E 3.5 mph
(E 6 kph)
- 2SM
05:15
Overcast
57°F / 14°C 55°F / 13°C 94% 30.04 in
(1017 mb)
E 3.5 mph
(E 6 kph)
- 2 1/2SM
04:55
Overcast
57°F / 14°C 54°F / 12°C 88% 30.04 in
(1017 mb)
Calm - 2SM
04:35
Overcast
57°F / 14°C 54°F / 12°C 88% 30.04 in
(1017 mb)
Calm - 3SM
04:15
Overcast
55°F / 13°C 54°F / 12°C 94% 30.06 in
(1018 mb)
Calm - 2 1/2SM
03:55
Overcast
55°F / 13°C 54°F / 12°C 94% 30.06 in
(1018 mb)
Calm - 3SM
03:35
Overcast
55°F / 13°C 54°F / 12°C 94% 30.06 in
(1018 mb)
Calm - 4SM
03:15
Overcast
55°F / 13°C 52°F / 11°C 88% 30.09 in
(1019 mb)
SE 3.5 mph
(SE 6 kph)
- 2 1/2SM
02:55
Overcast
55°F / 13°C 52°F / 11°C 88% 30.09 in
(1019 mb)
SSW 3.5 mph
(SSW 6 kph)
- 3SM
02:35
Overcast
54°F / 12°C 52°F / 11°C 94% 30.09 in
(1019 mb)
Calm - 10SM
02:15
Overcast
54°F / 12°C 50°F / 10°C 88% 30.09 in
(1019 mb)
Calm - 10SM
01:55
Overcast
54°F / 12°C 50°F / 10°C 88% 30.12 in
(1020 mb)
Calm - 5SM
01:35
Overcast
52°F / 11°C 48°F / 9°C 88% 30.12 in
(1020 mb)
Calm - 7SM
01:15
Mostly Cloudy
52°F / 11°C 48°F / 9°C 88% 30.12 in
(1020 mb)
Calm - 10SM
00:55
Mostly Cloudy
52°F / 11°C 48°F / 9°C 88% 30.12 in
(1020 mb)
Calm - 10SM
00:35
Overcast
52°F / 11°C 48°F / 9°C 88% 30.15 in
(1021 mb)
Calm - 10SM
00:15
Mostly Cloudy
52°F / 11°C 48°F / 9°C 88% 30.15 in
(1021 mb)
Calm - 10SM
Time Weather Temperature Dewpoint Humidity Pressure Winds Precip Visibility


Weather for websites

WeatherForYou.com, LLC is not responsible for any damages or problems caused by this service. Current weather conditions are obtained from the closest station including government and personal stations which may have varying degrees of accuracy. Weather forecasts are derived from the NOAA NDFD. Like all things, this site belongs to Jesus Christ... He just trusts me to maintain it. If you have any questions or comments email webmaster@weatherforyou.com

Copyright © 2015, WeatherForYou.com LLC. All rights reserved.